Location: Unspecified
(0.0000°N, 0.0000°E)
Time: 04:45:55
(UTC+00:00)

A-11 Canister half - Pass Details

Date: 22 April 2026
Orbit: 1523 x 1685 km, 47.3° (Epoch: 13 May)

Event Time Altitude Azimuth Distance (km) Brightness Sun altitude
Rises 08:49:55 0° 309° (NW) 4,863 11.4 41.6°
Reaches altitude 10° 08:53:11 10° 304° (NW) 3,857 10.9 42.4°
Maximum altitude 09:02:36 52° 231° (SW) 1,913 9.7 44.7°
Drops below altitude 10° 09:11:45 10° 156° (SSE) 3,742 11.2 46.9°
Sets 09:14:55 0° 151° (SSE) 4,709 11.7 47.6°
